User: anonymous   Login
Location: Unspecified
(0.0000°N, 0.0000°E)
Time: 01:42:47
(UTC+00:00)
Language:

CBERS 2 - Orbit

View from above orbital plane
View from above orbital plane
View from above satellite
View from above satellite

Ground track
Ground track

The orbit data is extracted from the following two-line orbital elements,

1 28057U 03049A   24106.43763941  .00000398  00000-0  15246-3 0  9999
2 28057  98.6466  59.4074 0001249  46.9088 313.2202 14.36041429 73370
Epoch (UTC): 15 April 2024 10:30:12
Eccentricity: 0.0001249
inclination: 98.6466°
perigee height: 771 km
apogee height: 772 km
right ascension of ascending node: 59.4074°
argument of perigee: 46.9088°
revolutions per day: 14.36041429
mean anomaly at epoch: 313.2202°
orbit number at epoch: 7337

The dashed part of the orbit path shows where the satellite is in the earth's shadow,  

DLR